Location: ????????
(55.5092°N, 38.1138°E)
Time: 14:49:27
(UTC+00:00)

Daily predictions for brighter satellites

Satellite Brightness Start Highest point End
(mag) Time Altitude Azimuth Time Altitude Azimuth Time Altitude Azimuth
NOAA 6 4.5 14:24:14 10° S 14:29:25 71° WSW 14:34:38 10° NNW
H-2A R/B 3.6 14:26:09 10° S 14:29:46 53° W 14:33:27 10° NNW
Cosmos 2098 Rocket 4.2 14:27:37 10° NNW 14:30:27 33° W 14:33:06 10° SSW
Cosmos 371 Rocket 4.4 14:25:59 10° SW 14:30:37 44° NW 14:35:19 10° NNE
Cosmos 1953 2.8 14:26:44 10° SSW 14:30:41 66° WNW 14:34:40 10° N
NOSS 2-1 (C) 3.6 14:29:22 10° WSW 14:32:42 57° NNW 14:36:39 10° NE
Meteor 2-16 Rocket 4.5 14:27:27 10° N 14:33:30 61° ENE 14:39:32 10° SSE
Cosmos 1606 Rocket 4.0 14:29:41 10° SSE 14:33:48 41° E 14:37:59 10° NNE
FengYun 1-2 T 4.3 14:30:58 10° SSE 14:36:34 65° ENE 14:42:07 10° NNW
NOSS 2-1 (D) 3.7 14:34:40 10° WSW 14:38:00 53° NNW 14:41:57 10° NE
Cosmos 1943 Rocket 3.5 14:34:11 10° WSW 14:39:14 34° NW 14:44:16 10° NNE
USA 305 3.5 14:35:56 10° W 14:40:11 57° SSW 14:44:24 10° ESE
Aureole 3 Rocket 4.3 14:36:14 10° SE 14:40:18 31° E 14:45:43 10° NNE
USA 215 3.4 14:36:06 10° E 14:42:40 80° N 14:49:13 10° W
Cosmos 292 Rocket 4.3 14:38:12 10° S 14:42:41 40° ESE 14:47:13 10° NE
YAOGAN 6 3.1 14:39:26 10° S 14:43:05 67° WSW 14:46:48 10° NNW
Cosmos 1726 3.9 14:40:09 10° SW 14:43:35 34° WNW 14:47:01 10° N
ATLAS 2AS CENTAUR R/B 3.2 14:36:16 10° WNW 14:43:54 53° NNE 14:51:02 10° E
Cosmos 2219 3.3 14:38:38 10° NW 14:44:27 90° NE 14:50:14 10° SSE
SeaSat 1 3.5 14:41:41 10° E 14:45:47 27° NNE 14:49:52 10° NNW
H-2A R/B 3.2 14:41:50 10° ESE 14:46:15 26° NE 14:50:41 10° N
USA 306 3.6 14:42:26 10° W 14:46:40 55° SSW 14:50:50 10° ESE
COSMOS 2455 4.2 14:42:44 10° WNW 14:47:52 28° N 14:53:00 10° NE
CZ-4C R/B 3.2 14:45:52 10° N 14:49:07 69° WNW 14:52:27 10° SSW
ATLAS 5 CENTAUR R/B 2.6 14:44:57 10° W 14:49:11 44° NNW 14:54:09 10° NE
Cosmos 1455 4.0 14:48:32 10° ESE 14:50:17 13° E 14:52:01 10° NE
Cosmos 2082 3.8 14:46:02 10° NNW 14:51:43 57° NE 14:57:23 10° SE
Cosmos 1331 Rocket 4.0 14:47:19 10° S 14:52:23 60° ESE 14:57:29 10° NNE
SMAP 3.4 14:48:29 10° S 14:53:08 71° WSW 14:57:49 10° NNW
Okean-O 3.2 14:49:15 10° SE 14:53:17 35° ENE 14:57:19 10° N
H-2A R/B 4.3 14:49:44 10° SSW 14:53:57 40° W 14:58:14 10° NNW
Cosmos 2278 Rocket 4.1 14:52:18 10° NW 14:56:03 18° N 14:59:48 10° NNE
Cosmos 1244 Rocket 4.5 14:49:53 10° N 14:56:06 71° ENE 15:02:21 10° SSE
CSL-04 DEB 4.3 14:52:49 10° NNE 14:56:48 79° ESE 15:00:42 10° SSW
Lacrosse 5 1.9 14:52:11 10° W 14:57:15 75° N 15:01:48 13° E
Cosmos 1953 Rocket 3.7 14:55:26 10° NNW 14:59:53 84° W 15:04:20 10° S
ARGOS 4.2 14:55:58 10° ESE 15:00:22 26° NE 15:04:48 10° N
GEOS 3 Rocket 3.9 14:55:38 10° ESE 15:00:52 56° NNE 15:06:10 10° NW
Cosmos 968 Rocket 3.4 14:55:52 10° NNW 15:01:08 75° ENE 15:06:19 10° SSE
Cosmos 1656 4.4 14:56:49 10° S 15:01:44 33° ESE 15:06:44 10° NE
ADEOS Rocket 3.3 14:55:36 10° NNE 15:01:56 85° WNW 15:09:01 10° SSW
FALCON 9 DEB 4.4 15:00:30 10° SSW 15:03:10 25° SSE 15:05:08 14° ESE
Cosmos 1844 Rocket 4.3 15:00:45 10° NNW 15:04:46 19° NNE 15:08:21 11° ENE
Feng Yun 1-1 Rocket 4.4 15:01:17 10° SSE 15:07:14 83° ENE 15:13:11 10° NNW
Cosmos 1408 3.1 15:04:15 10° N 15:07:40 35° ENE 15:11:04 10° SE
USA 281 4.0 15:01:59 10° SSE 15:08:26 57° WSW 15:14:55 10° NW
CZ-4B R/B 4.2 15:04:06 10° S 15:09:32 52° WSW 15:14:54 10° NNW
GENESIS II 4.3 15:06:01 10° SW 15:10:02 70° SE 15:13:31 14° NE
Cosmos 2058 Rocket 3.3 15:07:08 10° S 15:11:28 50° E 15:15:51 10° NNE
CZ-4C R/B 3.1 15:07:17 10° WNW 15:13:23 48° NNE 15:19:15 16° E
SL-08 ROCKET BODY 4.5 15:07:44 10° N 15:13:48 60° ENE 15:19:54 10° SSE
Cosmos 2227 Rocket 2.5 15:09:57 10° NW 15:15:36 73° WSW 15:21:15 10° SSE
ERBS 2.4 15:12:32 10° W 15:15:52 66° N 15:17:55 21° E
Cosmos 1076 Rocket 3.9 15:13:00 10° N 15:17:00 38° ENE 15:20:59 10° SE
IRS-1C Rocket 4.0 15:11:59 10° SSE 15:17:16 81° ENE 15:22:35 10° NNW
FALCON 9 DEB 4.2 15:14:51 10° SW 15:17:41 28° SSE 15:19:11 19° ESE
Cosmos 2263 Rocket 2.9 15:12:32 10° NNW 15:17:48 36° NE 15:21:42 17° E
SJ 16-02 3.2 15:16:24 10° N 15:18:48 14° NE 15:19:45 13° NE
Cosmos 1689 Rocket 2.8 15:17:47 18° NE 15:19:16 29° E 15:21:51 10° SSE
Cosmos 1818 4.3 15:14:40 10° WSW 15:19:57 49° NNW 15:25:06 11° NE
CSL-04 Rocket 4.1 15:16:07 10° SE 15:21:18 43° ENE 15:26:28 10° N
Cosmos 1110 Rocket 4.1 15:17:42 10° SSW 15:22:57 80° WNW 15:28:12 10° NNE
Cosmos 1892 2.6 15:19:09 10° N 15:23:04 73° ENE 15:26:57 10° SSE
FALCON 9 DEB 3.9 15:20:53 10° W 15:24:12 46° SSW 15:26:28 18° SE
Cosmos 1302 Rocket 4.0 15:19:46 10° S 15:24:57 61° ESE 15:30:11 10° NNE
H-2A R/B 3.0 15:22:30 10° N 15:26:32 47° WNW 15:30:29 10° SW
FALCON 9 DEB 4.0 15:24:22 10° SW 15:27:16 31° SSE 15:28:26 24° ESE
Cosmos 1939 Rocket 2.8 15:23:30 10° SSE 15:27:26 86° WSW 15:31:22 10° NNW
COSMO-SKYMED 1 2.7 15:24:01 10° NNE 15:28:16 49° E 15:32:29 10° S
USA 307 4.1 15:26:11 10° W 15:30:11 39° SSW 15:34:05 10° SE
Cosmos 1486 Rocket 4.4 15:25:05 10° NNW 15:30:25 70° WSW 15:35:42 10° SSE
NOSS 2-1 (E) 4.4 15:28:14 10° W 15:31:33 35° NNW 15:34:33 16° NE
SAR-Lupe-4 3.5 15:29:20 10° NNE 15:32:54 63° ESE 15:36:28 10° S
Cosmos 1697 Rocket 3.4 15:29:39 10° SSE 15:34:33 32° ESE 15:37:53 18° ENE
USA 308 4.2 15:31:10 10° W 15:35:08 37° SSW 15:38:52 11° SE
BREEZE-M R/B 4.2 15:33:48 10° WSW 15:37:23 43° S 15:42:09 17° ESE
Cosmos 1300 3.2 15:34:13 10° SSW 15:37:59 61° WNW 15:41:48 10° N
CZ-4B R/B 1.6 15:34:52 10° N 15:38:07 67° WNW 15:41:15 10° SSW
Meteor 2-8 Rocket 4.4 15:32:45 10° S 15:38:52 76° E 15:45:03 10° NNE
Cosmos 1825 2.3 15:35:12 10° N 15:38:55 50° ENE 15:42:36 10° SSE
Cosmos 1400 Rocket 2.7 15:34:53 10° S 15:38:59 84° ESE 15:43:04 10° NNE
S3M 4.1 15:33:35 10° SSE 15:39:28 51° E 15:45:26 10° NNE
ERS-2 2.5 15:36:48 10° NNE 15:40:26 66° WNW 15:44:03 10° SSW
Cosmos 1503 Rocket 4.0 15:35:25 10° NNW 15:40:40 90° WSW 15:45:57 10° SSE
Helios 1A Rocket 3.0 15:40:17 10° SSE 15:44:24 82° WSW 15:48:32 10° NNW
YAOGAN 1 2.4 15:41:32 10° SSE 15:45:51 75° ENE 15:50:12 10° NNW
Meteor 2-1 Rocket 4.3 15:42:23 10° SSE 15:47:40 49° E 15:53:01 10° NNE
Cosmos 1417 Rocket 4.4 15:43:28 10° S 15:49:42 71° E 15:56:03 10° NNE
Cosmos 1340 4.2 15:46:31 10° NNW 15:50:04 38° W 15:53:35 10° SSW
SAR-Lupe-1 4.0 15:47:09 10° NNE 15:50:46 90° E 15:54:20 10° SSW
Cosmos 44 3.2 15:47:07 10° SW 15:51:44 84° NW 15:55:01 21° NE
Okean 3 Rocket 4.4 15:48:21 10° N 15:52:03 29° ENE 15:52:03 29° ENE
Cosmos 1812 Rocket 3.9 15:48:16 10° SSE 15:52:22 40° E 15:56:28 10° NNE
SKYMED 3 4.4 15:48:00 10° NNE 15:52:22 79° ESE 15:56:44 10° SSW
Okean O Rocket 4.3 15:49:29 10° SW 15:52:56 22° W 15:56:23 10° NW
CZ-2D R/B 3.7 15:49:38 10° S 15:53:25 63° WSW 15:57:13 10° NNW
Cosmos 1354 Rocket 4.0 15:48:09 10° NNW 15:53:26 83° WSW 15:58:42 10° SSE
Cosmos 2228 4.5 15:50:37 10° SW 15:54:37 38° WNW 15:58:41 10° N
Cosmos 2297 Rocket 3.8 15:49:44 10° NW 15:54:52 36° WSW 15:59:58 10° S
Resurs 01 Rocket 3.8 15:56:30 12° NNE 15:56:30 12° NNE 15:57:22 10° NNE
CZ-4 R/B 1.3 15:51:35 10° SSE 15:55:27 78° WSW 15:59:19 10° NNW
Aureole 3 3.2 15:53:38 10° SSW 15:56:35 56° WNW 15:59:36 10° N
Timation 1 Rocket 4.4 15:50:57 10° NW 15:57:01 84° WSW 16:03:03 10° SSE
Cosmos 1346 Rocket 3.2 15:53:14 10° NNW 15:57:13 64° W 16:01:10 10° S
Cosmos 2058 3.1 15:53:09 10° NNW 15:57:15 72° W 16:01:20 10° S
Cosmos 2369 Rocket 4.1 15:53:17 10° WNW 15:57:51 24° NNW 16:02:25 10° NNE
Cosmos 1980 Rocket 3.1 15:53:33 10° SSE 15:57:31 27° ESE 15:57:31 27° ESE
SL-4 R/B 2.9 15:56:24 10° W 15:59:39 34° SSW 16:00:58 26° SSE
Cosmos 2151 3.1 15:55:46 10° N 15:59:53 48° ENE 16:00:54 39° ESE
Meteor 2-15 Rocket 4.4 15:54:34 10° S 16:00:37 62° E 16:06:41 10° NNE
PSLV R/B 3.8 15:57:00 10° NNE 16:01:13 79° ESE 16:05:22 10° SSW
Cosmos 1992 Rocket 4.1 15:56:32 10° S 16:01:34 53° ESE 16:05:12 19° NE
SJ-11-01 4.1 15:58:05 10° SSE 16:02:45 75° ENE 16:07:27 10° NNW
CSL-04 Debris 4.1 15:58:40 10° SSE 16:04:07 82° ENE 16:09:39 10° NNW
CZ-2C R/B 3.3 15:58:34 10° SSE 16:04:20 84° WSW 16:09:54 10° NNW
Cosmos 1553 Rocket 4.0 16:01:32 10° SSW 16:07:52 84° W 16:14:10 10° N
CRYOSAT 2 4.2 16:03:47 10° N 16:08:39 67° E 16:13:29 10° S
Meteor 2-15 4.4 16:05:57 10° S 16:12:06 86° ESE 16:18:16 10° NNE
Cosmos 2227 4.1 16:06:41 10° NNW 16:12:20 67° NE 16:14:40 36° ESE
Cosmos 1315 Rocket 2.6 16:08:41 10° S 16:12:39 71° ESE 16:15:47 16° NNE
NOSS 3-4 (A) 3.8 16:06:37 10° NW 16:13:23 85° SW 16:18:11 24° SE
NOSS 3-4 (C) 3.8 16:06:43 10° NW 16:13:29 86° SW 16:18:15 25° SE
Ariane Rocket 3.3 16:13:29 41° E 16:14:09 43° ENE 16:18:58 10° N
SKYMED 2 3.9 16:12:06 10° N 16:16:25 66° WNW 16:20:44 10° SSW
Meteor 2-10 Rocket 3.4 16:11:54 10° S 16:17:09 87° E 16:22:15 10° NNE
Cosmos 220 Rocket 3.9 16:13:13 10° SSW 16:17:35 73° ESE 16:19:08 40° NE
Cosmos 2360 4.3 16:15:29 10° S 16:21:00 51° ESE 16:22:32 40° ENE
SeaSat 1 2.3 16:20:51 38° SE 16:22:49 85° NE 16:27:48 10° NNW
Cosmos 1943 Rocket 4.3 16:21:01 10° NW 16:24:40 17° NNW 16:28:10 10° NNE
H-2A R/B 2.2 16:19:45 10° SSE 16:25:12 78° WSW 16:30:42 10° NNW
Cosmos 1455 2.1 16:21:29 10° SSW 16:25:17 82° WNW 16:28:40 13° N
USA 215 3.2 16:22:49 37° ESE 16:25:42 89° N 16:32:17 10° WNW
Cosmos 1441 Rocket 4.3 16:22:16 10° N 16:24:38 33° NNE 16:24:38 33° NNE
NOSS 3-3 (A) 4.0 16:20:46 10° SSW 16:26:35 57° SE 16:28:42 40° ENE
NOSS 3-3 (C) 4.0 16:20:52 10° SSW 16:26:42 56° SE 16:28:46 40° ENE
MOS 1 Rocket 3.2 16:22:12 10° NNE 16:26:51 66° ESE 16:31:46 10° S
IRS-1A Rocket 4.3 16:27:59 47° ESE 16:29:10 57° ENE 16:34:35 10° NNW
Okean-O 4.0 16:25:35 10° SSW 16:29:44 39° W 16:33:56 10° NNW
Cosmos 2278 4.0 16:25:58 10° S 16:30:46 45° SE 16:30:46 45° SE
MOS 1 4.3 16:31:54 49° ESE 16:32:54 56° ENE 16:38:26 10° NNW
ATLAS 5 CENTAUR R/B 3.0 16:30:26 10° WNW 16:34:50 35° N 16:36:03 31° NNE
COSMOS 2455 3.7 16:29:56 10° NW 16:35:27 35° NNE 16:36:35 32° NE
ATLAS 2AS CENTAUR R/B 2.8 16:27:48 10° NW 16:35:30 83° SW 16:38:50 36° SE
Meteor 2-3 Rocket 3.6 16:29:47 10° NNW 16:35:32 70° ENE 16:37:17 45° SE
GEOS 3 Rocket 4.2 16:36:12 28° SSE 16:38:56 56° SW 16:44:16 10° NW
ARGOS 3.2 16:35:50 16° S 16:40:10 78° WSW 16:45:39 10° NNW
Lacrosse 5 1.7 16:35:20 10° WNW 16:40:26 87° SSW 16:41:00 71° ESE
Cosmos 2278 Rocket 3.8 16:38:14 10° NNW 16:42:22 20° NNE 16:43:08 19° NNE
Cosmos 44 Rocket 4.3 16:38:20 10° SSW 16:41:12 33° S 16:41:12 33° S
Cosmos 1656 4.1 16:39:32 10° SW 16:45:06 63° NW 16:49:12 19° NNE
SL-08 RB Rocket 3.6 16:48:05 83° SSW 16:48:13 85° WSW 16:52:46 10° NNW
Cosmos 1844 Rocket 3.3 16:44:54 10° NNW 16:50:00 40° NE 16:50:00 40° NE
ERBS 4.1 16:48:51 10° WNW 16:50:49 32° W 16:50:49 32° W
Cosmos 2184 Rocket 3.9 16:48:41 10° N 16:55:00 66° ENE 16:55:37 62° ESE
Cosmos 2369 3.6 16:50:03 10° SSW 16:55:46 88° ESE 16:57:12 53° NE
Cosmos 1777 Rocket 4.3 16:51:42 10° NNW 16:56:52 62° WSW 16:58:18 44° S
SJ 16-02 2.6 16:54:04 10° NNW 16:56:44 33° N 16:56:44 33° N
Meteor 2-17 Rocket 4.3 16:52:46 10° NNW 16:58:52 88° ENE 17:00:30 52° SSE
Cosmos 2263 Rocket 2.4 16:56:29 10° NW 17:02:10 68° WSW 17:03:25 52° S
CZ-4C R/B 2.7 16:55:54 10° NW 17:02:41 87° NE 17:04:27 58° SE
RESURS DK-1 4.5 16:59:54 10° NNW 17:01:39 19° N 17:01:39 19° N
SJ-6B 4.5 17:09:34 30° NNW 17:09:34 30° NNW 17:11:46 10° NNW
Cosmos 1844 4.4 17:02:51 10° NNW 17:07:17 39° NNE 17:07:17 39° NNE
Cosmos 2074 Rocket 3.8 17:06:44 10° N 17:13:00 85° ENE 17:13:23 79° SE
Cosmos 1697 Rocket 3.0 17:12:38 10° SW 17:18:14 64° NW 17:19:40 47° N
Cosmos 1898 Rocket 4.3 17:15:25 10° NNW 17:19:10 42° N 17:19:10 42° N
Cosmos 2315 Rocket 4.3 17:22:22 10° SSW 17:28:29 62° WNW 17:34:41 10° N
Resurs 01 Rocket 3.9 17:34:04 18° N 17:34:04 18° N 17:35:15 10° N
Cosmos 1980 Rocket 3.3 17:36:09 10° SW 17:39:22 35° SW 17:39:22 35° SW
Cosmos 2369 Rocket 4.3 17:40:18 10° NW 17:44:00 17° N 17:44:55 17° NNE
Ariane Rocket 4.3 17:53:41 38° W 17:53:41 38° W 17:57:59 10° NNW
Cosmos 2154 Rocket 4.4 17:50:15 10° NNW 17:55:10 57° NNW 17:55:10 57° NNW
SeaSat 1 4.5 18:00:38 22° WSW 18:00:54 22° WSW 18:04:43 10° NW
USA 215 3.9 18:10:10 48° WSW 18:10:10 48° WSW 18:15:28 10° WNW
Cosmos 1943 Rocket 4.3 18:06:52 10° NNW 18:09:41 17° N 18:09:41 17° N
ATLAS 5 CENTAUR R/B 3.8 18:15:17 10° NW 18:17:34 27° NW 18:17:34 27° NW
COSMOS 2455 4.0 18:16:06 10° NW 18:19:43 38° NW 18:19:43 38° NW
Lacrosse 5 4.2 18:18:28 10° WNW 18:20:11 20° W 18:20:11 20° W
ATLAS 2AS CENTAUR R/B 4.2 18:19:29 10° WNW 18:25:32 28° WSW 18:26:17 27° WSW
Cosmos 2278 Rocket 4.0 18:22:30 10° NNW 18:24:58 25° NNW 18:24:58 25° NNW
Cosmos 1844 Rocket 4.4 18:28:51 10° NW 18:31:40 30° NW 18:31:40 30° NW
SJ 16-02 4.4 18:33:05 10° NW 18:33:44 13° NW 18:33:44 13° NW
CZ-4C R/B 4.1 18:44:36 10° WNW 18:49:38 34° W 18:49:38 34° W
ATLAS CENTAUR R/B 4.5 18:52:34 10° WNW 19:13:45 81° W 19:13:45 81° W
Cosmos 2322 Rocket 4.5 23:31:09 19° NNE 23:31:15 19° NNE 23:35:10 10° ENE
USA 234 4.5 23:38:45 10° ENE 23:42:51 33° E 23:42:51 33° E
